This is the latest recevied weather packets stored in our database for station/object MIDVIL-WX. If no packets are shown the sender has not sent any weather packets the latest 10 day(s).
| Time | Temp. | Humidity | Pressure | Rain* | Wind** | Luminosity | Snow |
|---|---|---|---|---|---|---|---|
| 1777962644 | 13.33° C | 76% | 973.9 hPa | 0 mm | - | - | - |
| 1777961728 | 13.89° C | 76% | 973.9 hPa | 0 mm | - | - | - |
| 1777960862 | 13.89° C | 76% | 973.9 hPa | 0 mm | - | - | - |
| 1777959928 | 14.44° C | 76% | 975.2 hPa | 0 mm | - | - | - |
| 1777959051 | 14.44° C | 68% | 973.7 hPa | 0 mm | - | - | - |
| 1777958127 | 15° C | 68% | 973.7 hPa | 0 mm | - | - | - |
| 1777957253 | 15° C | 68% | 973.7 hPa | 0 mm | - | - | - |
| 1777956327 | 15.56° C | 64% | 973.4 hPa | 0 mm | - | - | - |
| 1777955449 | 15.56° C | 65% | 973.4 hPa | 0 mm | - | - | - |
| 1777954527 | 16.11° C | 65% | 973.7 hPa | 0 mm | - | - | - |
| 1777953659 | 16.11° C | 65% | 973.7 hPa | 0 mm | - | - | - |
| 1777952724 | 16.67° C | 63% | 973.5 hPa | 0 mm | - | - | - |
| 1777951847 | 16.11° C | 65% | 973.5 hPa | 0 mm | - | - | - |
| 1777950927 | 16.67° C | 65% | 973.5 hPa | 0 mm | - | - | - |
| 1777950056 | 16.67° C | 65% | 973.5 hPa | 0 mm | - | - | - |
| 1777949127 | 16.67° C | 56% | 973.8 hPa | 0 mm | - | - | - |
| 1777948248 | 17.22° C | 60% | 973.9 hPa | 0 mm | - | - | - |
| 1777947327 | 17.22° C | 60% | 973.8 hPa | 0 mm | - | - | - |
| 1777946456 | 17.22° C | 60% | 973.8 hPa | 0 mm | - | - | - |
| 1777945527 | 17.78° C | 63% | 972.9 hPa | 0 mm | - | - | - |
| 1777944645 | 17.78° C | 63% | 972.9 hPa | 0 mm | - | - | - |
| 1777943727 | 17.78° C | 63% | 972.9 hPa | 0 mm | - | - | - |
| 1777942852 | 17.78° C | 63% | 972.9 hPa | 0 mm | - | - | - |
| 1777941927 | 18.89° C | 43% | 973.4 hPa | 0 mm | - | - | - |
| 1777941044 | 19.44° C | 45% | 974.1 hPa | 0 mm | - | - | - |
* Rain latest hour (hover to see other rain measurements)
** Current wind speed in m/s (hover to see current wind gust speed)